Flag for Guatemala Weather past 2 weeks in Guatemala, Guatemala

Now
75 °F

Passing clouds.


Feels Like: 78 °F
Forecast: 60 / 80 °F
Wind: 16 mph from North

Location: Guatemala Aeropuertola Aurora


UV Index: 10 (Very high)

Visibility: N/A


Pressure: 30.24 "Hg

Humidity: 50%

Dew point: 55 °F

Location of GuatemalaLocation

Historic Weather in Guatemala

°F

Guatemala temperature yesterday

Maximum temperature yesterday: 81 °F (at 1:00 PM)
Minimum temperature yesterday: 61 °F (at 5:00 AM)
Average temperature yesterday: 69 °F

Past Weeks' High & Low Weather Summary

 TemperatureHumidityPressure
High81 °F (Apr 8, 12:00 PM)94% (Apr 5, 9:00 PM)30.45 "Hg (Apr 5, 9:00 PM)
Low55 °F (Apr 9, 12:00 AM)24% (Apr 12, 4:00 PM)30.12 "Hg (Apr 6, 4:00 PM)
Average68 °F69%30.25 "Hg
* Reported Apr 5 5:00 PM — Apr 20 5:00 PM, Guatemala, Weather by CustomWeather, © 2014

Note: Actual official high and low records may vary slightly from our data, if they occured in-between our weather recording intervals... More about our weather records

Advertising

Historic Weather Conditions — Data for Previous 24 hours

 ConditionsComfort  
Time TempWeatherWind HumidityBarometerVisibility
5:00 PM
Apr 20
75 °FPassing clouds.16 mph50%30.24 "HgN/A
4:00 PM75 °FScattered clouds.18 mph54%30.24 "HgN/A
3:00 PM77 °FScattered clouds.16 mph47%30.24 "HgN/A
2:00 PM77 °FScattered clouds.16 mph51%30.27 "HgN/A
1:00 PM77 °FScattered clouds.16 mph47%30.30 "HgN/A
12:00 PM77 °FScattered clouds.14 mph47%30.33 "HgN/A
11:00 AM73 °FScattered clouds.14 mph53%30.33 "HgN/A
10:00 AM70 °FScattered clouds.16 mph60%30.33 "HgN/A
8:00 AM66 °FScattered clouds.16 mph64%30.33 "HgN/A
7:00 AM61 °FPassing clouds.14 mph88%30.33 "HgN/A
6:00 AM59 °FScattered clouds.16 mph94%30.30 "HgN/A
5:00 AM59 °FPassing clouds.12 mph94%30.30 "HgN/A
4:00 AM61 °FPassing clouds.12 mph88%30.27 "HgN/A
3:00 AM61 °FPassing clouds.9 mph88%30.30 "HgN/A
2:00 AM59 °FPassing clouds.12 mph94%30.30 "HgN/A
1:00 AM61 °FPassing clouds.16 mph88%30.30 "HgN/A
12:00 AM63 °FClear.14 mph77%30.30 "Hg10 mi
11:00 PM
Apr 19
63 °FClear.16 mph83%30.33 "Hg10 mi
10:00 PM64 °FPassing clouds.16 mph78%30.33 "HgN/A
9:00 PM64 °FClear.16 mph73%30.33 "Hg10 mi
8:00 PM66 °FClear.14 mph68%30.30 "Hg10 mi
7:00 PM68 °FPassing clouds.14 mph64%30.27 "HgN/A
6:00 PM72 °FScattered clouds.16 mph57%30.27 "HgN/A
Weather by CustomWeather, © 2014

See weather overview